Regional Weather Roundup
Issued by NWS

Home | Current Version | Previous Version | Graphics & Text | Print | Product List | Glossary On
Versions: 1 2 3 4 5 6 7 8 9 10 11 12 13 14 15 16 17 18 19 20 21 22 23 24 25 26 27 28 29 30 31 32 33 34 35 36 37 38 39 40 41 42 43 44 45 46 47 48 49 50
772
ASUS43 KOAX 270902
RWRNE

WEATHER ROUNDUP FOR NEBRASKA
NATIONAL WEATHER SERVICE OMAHA NE
400 AM CDT TUE SEP 27 2016

NOTES: SATELLITE DATA IS BEING USED TO AUGMENT CLOUD COVER ABOVE
       12000 FEET.
       "FAIR" INDICATES FEW OR NO CLOUDS BELOW 12,000 FEET WITH NO
       SIGNIFICANT WEATHER AND/OR OBSTRUCTIONS TO VISIBILITY.

  * THESE STATIONS DO NOT REPORT WEATHER SUCH AS RAIN...SNOW OR FOG.

NEZ001>004-019>022-054>056-271000-
NEBRASKA PANHANDLE

CITY           SKY/WX    TMP DP  RH WIND       PRES   REMARKS
SCOTTSBLUFF    CLEAR     44  40  85 NW5       30.21F
ALLIANCE       CLOUDY    36  34  92 W7        30.19F WCI  30
CHADRON        CLEAR     44  38  79 S3        30.16F
KIMBALL        CLEAR     45  40  82 W9        30.25F
SIDNEY         CLEAR     42  39  89 W6        30.23F
$$

NEZ057>060-069>072-079>082-271000-
SOUTHWEST NEBRASKA

CITY           SKY/WX    TMP DP  RH WIND       PRES   REMARKS
NORTH PLATTE   CLEAR     41  38  89 NW6       30.16F
IMPERIAL       CLEAR     47  40  76 NW3       30.18F
LEXINGTON      CLEAR     43  40  89 NW7       30.13F
MCCOOK         CLEAR     47  42  83 W6        30.14F
OGALLALA       CLEAR     43  41  92 SW5       30.18F
$$

NEZ005>010-023>029-035>040-094-271000-
NORTH CENTRAL NEBRASKA

CITY           SKY/WX    TMP DP  RH WIND       PRES   REMARKS
VALENTINE      CLEAR     43  37  79 W7        30.12F
AINSWORTH      CLEAR     46  40  82 W7        30.11F
BROKEN BOW     CLEAR     44  40  85 CALM      30.11F
O`NEILL        CLEAR     45  39  81 W3        30.09S
ORD            CLEAR     43  38  82 NW3       30.09F
THEDFORD       PTCLDY    44  40  88 CALM      30.15F
$$

NEZ041-046>049-061>064-073>077-083>087-271000-
SOUTH CENTRAL NEBRASKA

CITY           SKY/WX    TMP DP  RH WIND       PRES   REMARKS
GRAND ISLAND   CLEAR     47  42  83 W8        30.09F
AURORA         CLEAR     48  45  89 N7        30.08S
HASTINGS       CLEAR     52  42  69 W7        30.10F
HEBRON         CLEAR     46  44  95 CALM      30.08F
HOLDREGE       CLEAR     46  42  85 NW3       30.11F
KEARNEY *      CLEAR     48  39  71 NW8       30.11S
YORK           CLEAR     48  45  87 CALM      30.08F
$$

NEZ011>018-030>034-042>045-271000-
NORTHEAST NEBRASKA

CITY           SKY/WX    TMP DP  RH WIND       PRES   REMARKS
NORFOLK        CLEAR     47  42  83 W3        30.06F
ALBION         CLEAR     43  40  91 NW3       30.07F
BLAIR          CLEAR     54  46  73 W6        30.04F
FREMONT        CLEAR     48  46  91 NW3       30.05F
TEKAMAH        CLEAR     47  43  86 N6        30.03F
WAYNE          CLEAR     43  41  93 CALM      30.05F
$$

NEZ050>053-065>068-078-088>093-271000-
SOUTHEAST NEBRASKA

CITY           SKY/WX    TMP DP  RH WIND       PRES   REMARKS
LINCOLN        CLEAR     47  44  90 N3        30.08F
OMAHA EPPLEY   CLEAR     53  47  79 NE3       30.04F
BEATRICE       CLEAR     49  46  89 CALM      30.06F
FALLS CITY     CLEAR     53  47  79 W3        30.04F
NEBRASKA CITY  CLEAR     54  38  54 W8        30.04F
PLATTSMOUTH    CLEAR     54  41  61 W7        30.05S
$$

NEZ044-045-051>053-067-271000-
OMAHA AREA

CITY           SKY/WX    TMP DP  RH WIND       PRES   REMARKS
OMAHA EPPLEY   CLEAR     53  47  79 NE3       30.04F
BLAIR          CLEAR     54  46  73 W6        30.04F
FREMONT        CLEAR     48  46  91 NW3       30.05F
MILLARD        CLEAR     51  48  87 CALM      30.04F
OFFUTT AFB     CLEAR     51  46  84 W3        30.04S
PLATTSMOUTH    CLEAR     54  41  61 W7        30.05S
WAHOO          FAIR      47  44  89 CALM      30.05F
$$




USA.gov is the U.S. government's official web portal to all federal, state and local government web resources and services.